Wind_Speed
39 40 41 40 40 42 43 43 43 43 42 40 38 36 34 31 30 27 36 39 41 50 45 51 54 63 44 57 61 65 60 58 54 52 51 48 51 52 50 52 33 48 41 35 40 43 51 46 41 47 46 47 45 49
39 38 36 32 27 28 28 28 30 35 38 39 37 33 31 29 29 26 36 38 38 45 39 44 46 52 57 41 52 68 71 64 63 60 55 47 44 49 55 54 38 40 52 39 39 59 54 44 48 50 49 47 48 46
35 34 31 27 28 26 21 20 19 19 21 29 33 30 28 27 27 26 35 37 37 39 37 40 40 50 55 54 52 62 68 64 63 62 53 42 41 40 39 53 54 34 25 32 34 35 43 40 44 40 38 45 44 49
32 29 27 24 20 13 15 16 17 19 20 19 25 26 24 25 24 27 34 35 35 35 38 45 46 48 54 51 57 38 57 63 62 59 53 46 40 41 41 37 41 53 44 45 49 44 45 49 48 51 47 51 54 53
29 24 20 12 13 18 21 21 21 15 14 16 22 21 22 24 24 27 31 33 32 33 35 40 43 38 52 58 51 52 49 54 59 52 50 49 44 47 46 47 44 45 53 51 56 55 60 56 53 53 50 46 52 54
25 22 20 17 18 19 18 18 10 2 11 20 20 19 21 22 23 25 31 31 30 31 34 38 37 33 46 53 57 53 48 47 50 42 43 46 47 48 46 50 45 52 50 59 54 53 55 49 57 53 54 48 44 45
24 22 20 18 18 15 13 12 11 10 12 13 14 16 17 18 20 24 29 29 29 31 25 33 26 30 43 47 47 52 54 48 48 46 45 47 49 51 48 50 52 45 43 37 35 55 49 41 26 33 50 52 41 44
21 20 18 16 16 15 13 12 11 11 12 12 12 13 15 16 20 27 28 27 27 25 21 22 21 31 41 42 42 44 45 47 46 46 49 48 50 49 47 44 48 54 50 38 39 34 30 36 37 37 41 44 42 45
18 17 17 16 20 22 17 15 16 17 18 18 18 18 20 22 25 28 28 25 23 22 20 14 19 33 37 37 37 36 37 37 35 47 55 53 51 55 52 52 51 52 49 50 42 36 39 43 47 54 58 54 57 57
17 17 18 16 15 17 17 18 21 22 22 22 22 23 25 27 29 29 28 27 24 20 23 18 21 36 33 30 32 32 33 33 29 25 39 49 54 54 58 56 57 58 57 57 59 60 56 56 55 60 62 64 64 61
20 20 20 20 20 20 20 21 23 24 24 24 27 27 27 28 29 28 27 27 25 19 10 17 24 31 27 28 25 29 30 29 29 26 27 29 35 46 57 61 59 59 60 59 59 60 59 54 51 49 49 51 48 53
21 21 20 19 19 20 23 25 28 29 27 25 26 28 30 29 27 26 24 23 26 20 19 18 19 21 26 31 31 33 34 33 31 28 26 25 25 28 31 31 35 43 44 44 43 44 44 43 43 44 47 48 46 44
20 21 21 20 22 23 27 29 29 26 26 27 29 28 27 25 25 25 22 16 12 11 12 12 10 14 19 20 23 22 23 24 23 23 21 21 21 23 25 27 27 32 36 37 38 38 39 40 40 41 38 37 37 37
25 27 26 25 25 26 27 26 25 26 25 24 25 26 25 20 21 24 25 11 20 15 11 14 15 17 17 18 17 19 21 20 18 15 18 22 24 22 22 22 22 22 24 27 31 31 31 31 32 31 32 31 30 28
24 24 24 24 24 22 23 24 24 25 24 24 26 23 21 9 12 19 15 12 12 14 14 13 15 15 16 19 20 19 17 16 18 18 19 15 12 20 20 19 19 19 19 19 20 22 24 25 25 25 25 25 26 26
23 23 24 25 25 27 30 35 36 34 27 25 25 17 11 11 13 14 15 14 12 10 13 14 15 14 15 15 13 14 16 18 18 18 17 15 14 16 18 18 19 19 19 20 20 20 19 20 21 21 21 23 24 24
20 21 22 23 24 24 25 24 25 24 24 17 14 21 20 17 15 15 16 18 18 17 16 13 11 8 7 9 13 14 14 14 14 11 13 18 14 12 14 16 16 16 17 17 16 16 18 19 18 18 20 21 19 17
17 17 17 17 18 18 17 19 19 15 15 16 16 15 13 13 15 17 18 19 19 19 15 13 12 12 8 7 7 7 8 10 13 13 14 12 11 12 13 14 15 15 16 15 15 15 15 16 16 15 15 14 12 12
10 11 13 14 15 15 14 14 15 16 16 16 16 16 15 15 14 14 13 13 13 12 10 10 10 10 6 5 4 5 5 8 9 9 10 11 13 14 14 13 13 13 13 12 10 9 9 9 8 8 8 8 7 8
37 32 26 24 25 23 19 14 13 13 13 13 13 13 14 13 12 10 9 9 9 9 9 9 8 8 6 6 3 0 6 6 7 9 8 6 5 9 7 8 7 7 7 7 7 8 6 5 6 5 7 8 8 7
41 44 42 40 36 34 33 32 30 28 25 23 24 24 22 22 20 17 16 15 17 17 16 17 19 19 16 11 10 7 12 8 8 10 6 5 6 7 3 3 8 13 8 5 6 6 4 5 4 5 5 5 6 5
32 36 41 43 43 44 46 45 44 43 42 42 40 40 39 37 35 31 28 25 23 23 24 23 19 20 16 14 17 19 7 3 7 12 9 9 6 4 3 6 6 4 3 4 3 3 3 5 6 6 5 6 8 8
36 28 33 35 36 37 38 35 33 33 33 33 31 29 31 35 29 30 27 28 24 23 20 17 11 15 14 11 11 13 14 13 12 6 6 11 8 9 5 6 4 3 3 2 4 7 8 8 8 9 11 11 12 12
26 24 24 24 23 28 29 29 26 25 25 24 25 24 25 28 23 31 27 20 22 18 17 14 12 9 9 8 8 7 7 8 8 6 5 7 4 1 0 1 2 4 5 6 7 9 11 12 13 14 14 14 14 14
17 17 19 18 18 20 22 19 18 17 18 19 18 17 17 19 17 17 16 13 13 12 12 12 12 12 11 9 8 7 7 5 3 1 1 2 4 4 5 6 7 9 10 10 12 12 12 13 14 15 16 16 17 18
12 13 13 15 15 15 18 14 14 13 15 15 14 14 16 17 15 15 15 13 12 12 11 10 11 10 9 7 7 7 7 6 4 4 6 6 4 7 7 9 8 9 14 13 14 15 16 17 18 20 21 22 23 23
14 12 14 14 14 13 13 13 12 12 12 13 13 13 12 12 13 12 11 11 12 10 9 7 8 8 8 9 9 10 8 9 9 9 11 12 13 15 16 17 18 19 20 20 21 22 23 24 24 25 26 26 26 26
14 14 13 12 11 10 9 9 9 9 10 11 12 12 12 13 12 11 12 11 11 12 12 11 11 11 11 12 13 13 13 11 10 12 13 15 17 19 20 20 19 21 23 23 23 24 24 24 25 25 24 24 23 24
13 13 12 12 11 10 8 6 5 5 6 8 9 11 12 9 8 8 7 7 8 9 11 12 12 13 13 14 14 14 13 12 11 11 12 12 12 13 13 14 14 15 15 16 16 18 19 19 20 21 22 22 23 23
14 13 12 10 9 8 8 7 6 6 7 9 11 12 11 10 10 10 11 11 11 10 12 13 14 15 15 15 15 17 19 16 16 16 15 16 18 18 19 20 21 22 22 22 22 24 27 27 27 28 29 30 31 32
15 16 15 14 13 12 9 8 7 11 13 12 16 16 13 12 12 13 12 10 11 14 15 16 17 19 20 21 20 21 22 24 23 22 22 22 22 23 25 26 27 28 28 30 31 32 34 37 37 35 36 36 38 40
13 10 16 10 13 18 13 18 21 25 25 10 10 5 4 7 11 13 14 15 17 19 21 22 23 23 24 26 26 27 28 28 26 24 23 24 25 27 30 33 34 36 37 37 39 40 41 42 44 45 43 45 47 48
19 18 10 12 16 16 11 12 14 17 18 16 13 5 7 10 13 13 14 17 18 21 25 27 26 25 25 24 23 23 26 28 28 29 28 29 31 34 36 39 41 42 44 44 44 45 49 50 51 54 55 55 55 55
Wind_Direction
308 307 304 298 297 291 280 273 266 261 257 254 252 249 245 242 240 234 224 217 219 214 213 214 209 206 205 218 212 199 196 197 199 204 213 217 215 205 206 204 210 220 231 226 210 211 220 213 216 215 224 224 230 241
313 309 305 306 310 307 297 290 278 266 255 246 244 242 236 234 235 231 221 215 210 210 209 213 209 205 207 197 212 204 200 201 204 206 210 215 222 211 212 212 213 219 219 231 242 210 211 218 212 229 228 229 234 243
318 317 309 306 308 310 304 298 288 274 259 244 234 231 227 226 228 221 216 210 202 202 203 201 203 202 204 205 202 202 211 212 210 212 214 209 211 204 208 215 218 212 248 240 252 249 259 233 241 221 229 240 248 252
328 331 323 316 318 304 317 313 310 275 269 244 216 216 213 213 215 208 211 204 195 195 196 201 205 203 195 200 206 189 204 210 217 221 215 215 209 205 195 204 211 215 219 230 236 238 247 252 250 254 257 251 252 258
335 342 340 335 344 332 323 315 304 283 251 209 186 195 200 204 204 204 204 198 194 190 192 203 205 207 202 196 202 192 210 213 212 217 218 215 213 211 210 205 204 211 217 222 230 233 233 237 240 244 252 250 251 258
350 346 343 323 320 324 313 316 351 38 155 157 170 185 193 196 198 200 198 190 181 180 191 199 203 205 200 197 200 196 195 197 204 198 205 208 206 209 216 213 214 216 226 214 224 225 238 245 243 246 249 251 258 266
2 4 11 23 29 32 40 49 66 100 129 149 166 177 182 187 186 188 182 172 172 180 191 194 198 199 194 191 196 204 209 199 197 192 197 203 204 208 217 220 220 224 232 221 230 238 230 227 225 244 251 249 257 267
15 24 31 29 26 32 33 45 68 89 104 116 132 147 156 160 166 170 160 163 167 173 174 189 203 194 188 187 195 201 208 210 201 189 196 199 200 209 216 223 227 227 235 238 237 239 233 259 261 267 265 259 261 268
32 36 35 41 52 46 46 67 81 91 100 109 118 126 132 142 149 150 151 152 155 161 150 151 189 184 182 185 191 197 204 211 212 212 208 207 203 206 214 222 226 230 234 232 241 240 242 246 254 261 266 270 273 274
44 41 37 35 45 50 59 74 85 91 98 105 113 122 133 138 141 140 141 145 147 149 154 144 179 179 177 176 182 188 194 201 210 202 213 218 212 211 213 218 226 230 237 238 239 242 251 258 261 262 266 268 269 271
43 40 43 44 53 61 71 81 89 95 99 106 113 119 123 129 131 134 140 143 144 128 155 154 156 173 167 164 171 179 184 188 193 199 201 202 213 223 225 219 224 235 241 246 250 253 257 260 259 257 262 265 268 270
46 43 50 53 60 68 80 90 99 102 103 108 112 117 119 121 124 131 138 144 146 154 136 124 116 154 174 177 169 178 182 186 192 195 212 218 219 222 229 226 223 234 241 245 247 252 257 259 261 262 262 266 268 273
41 46 57 64 73 88 99 97 95 98 102 102 108 111 115 117 117 123 125 127 147 150 154 154 136 162 169 168 176 181 183 193 196 200 209 221 227 236 237 234 229 231 238 246 250 254 256 258 261 265 268 271 269 268
63 64 66 69 76 84 89 93 96 97 102 106 111 115 114 116 127 135 129 86 141 160 161 154 158 158 170 172 171 185 194 201 208 214 216 224 226 232 240 246 247 248 246 247 250 253 254 256 257 258 260 263 263 263
61 60 66 70 74 78 87 92 97 100 106 118 115 113 110 38 94 144 155 175 144 147 168 168 162 162 168 171 184 195 197 199 206 209 213 219 232 233 237 240 244 245 246 245 248 249 252 253 254 255 258 262 263 265
53 56 58 63 73 81 87 93 93 93 99 111 100 96 104 111 94 117 150 169 164 175 171 170 177 167 171 171 178 189 193 199 200 212 220 226 230 232 236 235 237 240 244 248 250 257 264 266 267 267 265 268 269 267
58 60 63 68 72 76 84 94 92 86 102 121 81 89 104 104 97 97 94 115 127 133 135 130 138 146 159 187 193 199 201 204 205 214 215 229 230 227 230 240 246 251 257 264 272 278 271 265 265 268 269 273 269 265
49 52 56 62 68 74 81 89 88 84 95 97 100 99 104 105 112 115 121 119 120 122 124 127 122 130 137 152 174 181 192 204 213 222 232 244 243 245 249 255 256 255 265 268 272 267 265 265 263 259 257 257 256 258
50 55 60 59 60 65 69 80 85 90 92 92 91 93 98 103 103 119 122 117 120 125 121 123 117 128 142 149 172 172 193 210 219 231 233 231 238 246 252 250 246 244 240 252 262 269 267 267 256 248 242 239 242 247
57 59 58 58 61 69 76 80 82 86 96 102 101 106 105 106 107 114 119 118 123 128 131 140 132 134 114 101 84 211 208 196 173 186 174 181 214 232 229 232 217 208 227 235 242 251 248 249 250 235 242 244 244 245
66 71 75 77 76 77 76 74 74 76 82 86 88 90 92 97 97 102 103 105 103 106 107 107 104 96 86 93 73 74 121 118 126 144 153 190 149 152 127 201 190 193 231 222 207 199 218 232 249 257 242 241 248 261
68 79 78 76 77 79 79 78 78 82 83 82 82 85 86 84 82 83 93 93 95 100 103 109 91 67 73 73 68 71 101 87 146 146 131 147 150 139 147 154 167 171 186 173 179 198 231 261 255 248 265 278 284 288
59 74 82 80 80 77 77 76 69 69 75 72 73 73 66 64 71 66 84 73 77 76 88 89 85 59 64 55 65 65 58 66 74 104 165 139 132 142 143 136 139 156 179 198 234 243 255 258 264 275 279 281 282 283
56 63 76 68 69 76 71 68 70 73 69 63 65 67 63 66 67 66 67 55 63 60 70 78 74 67 66 70 65 57 67 64 69 73 65 76 85 174 172 105 238 255 260 258 260 266 270 272 273 272 273 276 277 277
29 44 49 57 56 46 48 56 67 66 65 65 62 56 63 71 76 63 64 57 45 47 50 44 45 45 37 29 30 31 41 46 23 13 177 235 243 240 248 244 265 275 273 274 275 271 270 272 276 277 279 280 283 284
12 44 38 38 44 23 58 49 60 66 73 64 60 55 54 57 59 59 52 50 51 46 42 37 33 29 22 12 359 349 342 337 330 311 297 302 303 287 283 271 259 276 282 285 283 279 277 279 282 285 288 287 287 288
29 32 38 38 39 40 49 59 59 55 49 61 62 48 44 45 46 43 39 31 26 17 8 5 355 355 348 339 328 318 313 305 299 295 287 283 283 279 280 281 283 282 280 281 282 282 281 279 278 277 278 280 281 280
29 32 32 26 20 25 24 28 45 53 60 57 56 50 48 49 48 37 35 33 22 14 18 15 1 359 349 340 337 327 311 305 299 289 285 282 283 284 281 282 283 283 284 283 281 279 279 282 283 283 284 284 284 284
15 15 19 21 22 21 18 32 46 50 60 62 36 28 22 27 28 28 26 16 10 8 358 356 344 338 336 341 342 335 336 334 326 306 303 299 293 294 297 299 299 294 292 292 291 287 287 285 286 287 286 284 283 281
14 5 356 355 353 351 359 350 346 314 295 304 312 323 333 343 350 345 347 346 346 348 342 339 334 334 329 327 325 323 320 321 320 318 312 306 306 304 299 295 292 292 293 292 290 289 289 286 282 281 284 287 288 288
5 4 6 5 356 350 335 327 332 320 297 297 313 295 293 309 322 321 324 331 325 317 317 320 321 321 317 318 316 311 309 306 305 306 303 301 301 300 295 292 290 291 291 291 292 291 289 287 289 290 288 287 286 286
347 328 307 330 334 308 296 300 325 335 337 342 7 305 299 332 305 311 320 323 327 325 322 319 316 313 311 311 311 311 309 305 305 302 299 300 300 298 295 295 296 295 293 291 290 288 288 288 287 285 284 283 282 281
346 346 336 323 318 309 337 359 355 351 348 351 341 354 357 338 329 324 325 327 327 327 325 322 320 320 319 320 320 318 311 308 310 307 306 301 296 294 293 292 292 291 291 291 290 288 287 286 285 285 284 282 281 281
Height
5559 5553 5547 5542 5537 5532 5528 5526 5526 5528 5531 5535 5539 5544 5549 5554 5559 5564 5568 5574 5583 5598 5612 5619 5628 5647 5658 5672 5684 5694 5701 5705 5714 5724 5733 5742 5753 5763 5771 5778 5783 5787 5790 5794 5798 5805 5812 5819 5825 5830 5833 5836 5840 5843
5549 5542 5536 5530 5524 5520 5516 5513 5511 5511 5515 5520 5526 5532 5539 5545 5550 5556 5560 5567 5577 5592 5604 5617 5629 5641 5653 5664 5675 5682 5687 5694 5704 5714 5724 5737 5746 5756 5763 5767 5770 5775 5784 5790 5788 5787 5800 5808 5810 5818 5822 5828 5832 5833
5540 5533 5526 5521 5516 5512 5508 5505 5503 5502 5503 5507 5514 5523 5530 5537 5543 5549 5554 5562 5571 5583 5593 5609 5621 5624 5636 5651 5660 5670 5684 5695 5700 5707 5721 5731 5739 5746 5753 5760 5766 5773 5771 5775 5782 5783 5787 5795 5800 5804 5816 5822 5823 5824
5533 5525 5519 5515 5510 5507 5504 5501 5498 5496 5497 5499 5506 5516 5524 5531 5538 5544 5550 5558 5567 5576 5587 5595 5604 5618 5627 5640 5650 5662 5674 5687 5696 5706 5716 5726 5735 5741 5743 5749 5756 5761 5762 5771 5779 5782 5784 5787 5792 5795 5801 5808 5811 5812
5528 5521 5516 5512 5508 5505 5501 5496 5493 5490 5490 5494 5503 5512 5520 5527 5533 5540 5548 5556 5562 5572 5583 5596 5607 5613 5624 5635 5642 5659 5670 5678 5686 5698 5711 5720 5728 5732 5738 5741 5746 5752 5757 5760 5763 5770 5772 5776 5781 5784 5790 5792 5795 5799
5526 5520 5515 5510 5506 5502 5498 5494 5489 5488 5490 5496 5504 5512 5519 5525 5532 5538 5546 5555 5564 5573 5583 5592 5602 5610 5618 5629 5644 5654 5660 5669 5679 5689 5700 5708 5717 5722 5725 5732 5738 5743 5747 5750 5756 5759 5763 5767 5771 5773 5776 5784 5788 5789
5526 5521 5516 5511 5507 5504 5501 5498 5497 5497 5499 5503 5508 5514 5520 5526 5533 5540 5550 5557 5565 5574 5583 5592 5600 5606 5615 5625 5637 5648 5656 5662 5670 5680 5689 5701 5711 5711 5718 5724 5732 5736 5740 5743 5751 5754 5754 5755 5759 5767 5772 5776 5778 5778
5529 5524 5521 5517 5513 5510 5507 5505 5503 5504 5505 5509 5513 5518 5523 5529 5536 5544 5553 5560 5568 5576 5584 5592 5598 5605 5612 5621 5632 5642 5651 5657 5666 5673 5684 5692 5704 5709 5714 5718 5723 5731 5735 5738 5742 5743 5744 5747 5752 5757 5763 5764 5765 5768
5533 5529 5526 5522 5519 5516 5513 5511 5510 5511 5513 5516 5519 5523 5528 5535 5543 5550 5557 5565 5572 5581 5587 5593 5597 5604 5612 5619 5629 5638 5645 5654 5661 5669 5678 5686 5695 5702 5709 5712 5716 5719 5726 5730 5732 5738 5742 5745 5747 5749 5750 5750 5751 5752
5539 5535 5532 5528 5525 5523 5521 5519 5519 5520 5522 5524 5528 5532 5538 5543 5550 5556 5564 5570 5577 5583 5589 5594 5597 5604 5613 5620 5627 5636 5642 5651 5659 5667 5673 5680 5688 5693 5700 5705 5708 5711 5713 5719 5725 5729 5732 5735 5738 5737 5739 5739 5738 5738
5545 5542 5539 5535 5533 5531 5530 5529 5529 5530 5532 5535 5539 5543 5548 5553 5559 5565 5570 5576 5582 5589 5594 5593 5599 5606 5614 5619 5626 5635 5641 5649 5656 5664 5670 5675 5680 5686 5691 5698 5703 5706 5708 5712 5714 5717 5723 5725 5725 5724 5725 5725 5725 5724
5553 5550 5547 5544 5542 5540 5540 5540 5541 5542 5544 5547 5550 5554 5558 5563 5569 5574 5579 5584 5588 5592 5597 5603 5606 5610 5615 5621 5627 5633 5639 5647 5653 5661 5666 5671 5677 5682 5687 5694 5700 5700 5701 5703 5706 5708 5710 5711 5714 5714 5712 5712 5713 5713
5561 5558 5555 5553 5551 5551 5551 5552 5553 5554 5556 5558 5561 5565 5569 5575 5578 5582 5587 5592 5596 5598 5601 5605 5609 5612 5618 5623 5630 5636 5642 5648 5654 5659 5665 5669 5672 5675 5679 5684 5688 5691 5693 5695 5697 5699 5699 5700 5700 5700 5700 5702 5702 5701
5571 5568 5566 5565 5563 5563 5563 5563 5563 5564 5566 5569 5572 5575 5578 5581 5585 5588 5591 5586 5595 5601 5605 5607 5610 5614 5621 5626 5631 5635 5640 5645 5651 5657 5660 5663 5666 5669 5672 5674 5678 5681 5684 5686 5688 5688 5689 5689 5690 5690 5690 5691 5691 5692
5583 5580 5578 5576 5574 5572 5571 5571 5571 5572 5574 5577 5580 5582 5584 5588 5588 5593 5594 5597 5601 5605 5609 5612 5616 5620 5623 5627 5630 5635 5641 5645 5648 5652 5655 5658 5662 5664 5667 5670 5672 5674 5676 5678 5679 5680 5680 5681 5682 5682 5682 5683 5683 5683
5593 5591 5589 5587 5585 5584 5582 5581 5581 5582 5585 5586 5587 5591 5592 5593 5595 5596 5599 5601 5605 5608 5612 5616 5619 5622 5626 5629 5633 5637 5639 5642 5645 5648 5653 5656 5658 5659 5663 5665 5667 5668 5669 5670 5672 5673 5674 5674 5674 5675 5675 5675 5675 5674
5601 5599 5597 5596 5595 5594 5594 5594 5592 5592 5591 5594 5594 5594 5596 5599 5601 5603 5605 5606 5608 5612 5616 5619 5622 5625 5628 5630 5633 5636 5639 5641 5644 5647 5650 5650 5654 5656 5658 5659 5662 5663 5664 5665 5666 5666 5667 5667 5667 5667 5667 5667 5666 5667
5609 5607 5605 5604 5603 5602 5601 5600 5601 5602 5601 5600 5601 5602 5604 5605 5607 5609 5610 5612 5614 5617 5620 5622 5625 5628 5630 5631 5633 5635 5638 5640 5642 5643 5646 5649 5651 5653 5654 5656 5657 5658 5658 5660 5661 5661 5661 5661 5660 5661 5661 5662 5662 5663
5616 5614 5612 5610 5608 5607 5606 5606 5606 5606 5607 5608 5608 5609 5610 5612 5613 5615 5617 5618 5620 5622 5624 5627 5628 5630 5631 5633 5634 5636 5637 5638 5640 5643 5644 5646 5648 5649 5650 5651 5652 5654 5656 5657 5657 5657 5657 5658 5658 5659 5659 5659 5660 5661
5623 5621 5618 5616 5614 5613 5611 5611 5611 5611 5611 5612 5612 5613 5615 5616 5618 5619 5620 5622 5624 5625 5627 5628 5630 5632 5633 5635 5635 5635 5635 5636 5638 5640 5642 5644 5646 5647 5648 5649 5650 5652 5653 5654 5655 5656 5656 5656 5657 5657 5658 5658 5659 5659
5639 5635 5630 5627 5625 5622 5621 5620 5619 5618 5618 5619 5619 5619 5620 5621 5622 5623 5624 5625 5627 5628 5630 5633 5635 5636 5636 5635 5636 5635 5636 5638 5639 5641 5642 5643 5644 5646 5647 5647 5648 5650 5652 5653 5653 5654 5655 5656 5656 5657 5658 5657 5657 5657
5652 5650 5647 5643 5641 5639 5638 5636 5635 5634 5633 5633 5632 5631 5632 5632 5632 5632 5632 5634 5635 5637 5638 5639 5640 5638 5639 5639 5639 5639 5640 5641 5642 5642 5643 5644 5645 5646 5647 5648 5649 5651 5652 5652 5653 5653 5654 5655 5655 5655 5655 5655 5655 5655
5666 5664 5660 5657 5654 5651 5652 5651 5649 5648 5646 5645 5645 5645 5644 5643 5643 5644 5645 5645 5645 5646 5646 5645 5643 5639 5642 5645 5645 5644 5645 5644 5645 5645 5645 5645 5646 5647 5647 5647 5649 5650 5651 5651 5652 5652 5652 5653 5653 5652 5652 5652 5651 5651
5678 5676 5670 5666 5664 5662 5660 5659 5659 5658 5656 5656 5655 5653 5654 5653 5650 5650 5651 5649 5650 5652 5653 5653 5652 5650 5649 5650 5649 5648 5649 5649 5648 5648 5648 5647 5648 5649 5649 5649 5649 5649 5650 5651 5650 5651 5650 5650 5649 5649 5648 5648 5647 5647
5686 5682 5679 5674 5671 5670 5669 5668 5667 5666 5664 5663 5663 5662 5662 5661 5660 5655 5657 5659 5657 5656 5656 5655 5654 5652 5652 5652 5652 5652 5651 5651 5650 5649 5650 5649 5649 5649 5648 5648 5649 5649 5649 5648 5647 5647 5646 5646 5645 5644 5643 5643 5642 5640
5688 5686 5683 5681 5679 5675 5668 5673 5673 5673 5671 5670 5669 5668 5666 5664 5665 5663 5662 5662 5662 5661 5659 5658 5657 5656 5656 5655 5654 5652 5651 5651 5650 5650 5648 5648 5648 5647 5646 5646 5646 5646 5644 5643 5643 5642 5642 5641 5640 5638 5637 5636 5635 5634
5692 5689 5686 5684 5683 5682 5680 5679 5677 5676 5675 5674 5672 5671 5670 5669 5668 5667 5667 5665 5664 5662 5661 5659 5658 5658 5656 5655 5653 5652 5652 5650 5650 5649 5647 5645 5645 5644 5643 5642 5640 5640 5639 5638 5637 5635 5634 5633 5632 5630 5629 5627 5626 5625
5694 5691 5690 5688 5686 5685 5683 5682 5680 5679 5678 5676 5675 5673 5673 5672 5671 5670 5669 5667 5666 5664 5663 5662 5660 5659 5656 5654 5652 5650 5647 5647 5645 5644 5643 5641 5639 5638 5636 5635 5635 5633 5631 5630 5629 5627 5626 5625 5623 5621 5619 5618 5617 5615
5697 5694 5692 5690 5688 5687 5686 5684 5683 5682 5681 5679 5678 5677 5675 5673 5670 5669 5668 5667 5666 5665 5663 5661 5659 5657 5655 5653 5651 5648 5646 5644 5642 5640 5638 5637 5635 5633 5632 5631 5629 5627 5625 5624 5622 5620 5618 5616 5614 5612 5611 5609 5607 5605
5699 5697 5695 5693 5690 5688 5688 5686 5684 5683 5681 5680 5678 5676 5675 5673 5672 5670 5668 5666 5665 5664 5662 5660 5657 5655 5652 5650 5648 5644 5642 5640 5638 5636 5635 5632 5630 5628 5626 5624 5622 5620 5618 5616 5614 5611 5608 5606 5604 5602 5600 5599 5596 5595
5701 5700 5697 5694 5692 5688 5684 5681 5680 5680 5678 5677 5676 5674 5673 5673 5671 5669 5667 5665 5663 5660 5657 5656 5654 5651 5648 5646 5644 5641 5637 5634 5632 5631 5628 5625 5623 5621 5618 5615 5613 5611 5609 5605 5602 5600 5596 5592 5590 5591 5589 5587 5584 5580
5699 5696 5692 5685 5690 5688 5683 5679 5676 5675 5678 5676 5672 5670 5668 5669 5669 5667 5664 5662 5660 5657 5654 5651 5649 5646 5643 5640 5636 5633 5628 5625 5624 5621 5620 5618 5615 5611 5607 5604 5601 5598 5595 5592 5589 5585 5583 5580 5576 5573 5572 5569 5566 5563
5699 5695 5695 5694 5690 5684 5673 5674 5676 5677 5676 5672 5670 5670 5668 5667 5665 5663 5660 5658 5656 5652 5648 5644 5642 5639 5635 5632 5630 5627 5622 5617 5615 5611 5610 5607 5604 5600 5596 5591 5588 5584 5580 5577 5574 5569 5564 5560 5556 5552 5549 5547 5545 5542